Wind_Speed
4 5 5 6 8 9 11 12 13 15 17 16 15 14 14 14 13 14 14 15 15 16 17 17 17 15 13 10 7 6 5 5 5 5 5 5 6 7 8 9 10 10 11 11 11 11 12 12 12 13 13 13 13 13 13 13 13 13 13 13 13 13 13 13 13 13 13 13 13 13 13 13 13 13 12 12 12 12 12 12 12 12 12 13 13 13
5 5 6 7 8 9 10 11 12 13 15 16 16 16 17 17 17 17 17 17 17 15 13 11 8 6 4 3 3 2 2 2 1 2 3 5 7 8 9 9 10 10 10 11 11 11 12 12 12 12 12 12 12 12 12 12 12 12 12 12 13 13 13 13 13 13 13 13 13 13 13 13 13 13 13 12 12 13 13 13 13 12 13 13 13 13
4 5 5 6 7 8 9 10 10 11 11 12 13 15 16 16 16 16 16 14 11 8 5 2 2 2 2 1 1 2 2 1 2 3 5 6 7 8 9 9 9 9 10 10 11 11 11 12 12 12 12 12 12 11 11 11 11 11 11 12 12 12 12 12 12 12 12 12 13 13 13 13 13 13 13 12 12 12 12 12 12 12 12 12 12 13
3 3 4 5 6 7 8 8 8 8 8 8 9 10 10 10 10 10 8 5 2 1 2 2 2 2 2 3 4 4 3 2 3 4 6 7 7 8 8 8 9 9 10 10 11 11 11 11 11 11 11 11 11 11 10 10 10 11 11 11 11 11 12 11 11 11 12 12 12 12 12 12 12 12 12 12 12 12 12 12 12 12 12 12 12 12
1 2 3 4 5 5 6 6 5 5 5 5 5 4 4 4 3 2 1 2 3 3 3 2 2 2 3 3 3 3 3 2 4 5 6 6 6 7 7 8 9 10 10 10 11 11 11 11 11 11 11 11 11 10 10 10 10 10 10 10 10 10 10 10 10 10 11 11 11 11 12 12 12 12 12 12 12 12 12 12 12 12 12 12 12 12
1 1 2 3 3 3 3 3 3 2 2 2 1 1 0 1 2 3 3 3 3 2 2 1 2 2 2 2 2 2 1 2 4 5 6 6 6 7 8 9 10 10 10 10 10 10 10 10 10 10 10 10 10 9 9 9 8 8 8 8 9 9 9 10 10 11 11 11 11 12 12 12 12 12 12 12 12 12 12 12 12 12 12 12 12 12
1 1 2 2 2 2 2 2 2 2 2 2 2 3 3 3 4 3 3 2 1 1 1 1 2 2 2 2 1 1 1 3 5 6 7 8 9 10 10 10 10 9 9 9 8 8 8 8 8 8 8 8 8 8 7 7 7 8 8 9 10 10 11 11 11 12 12 12 12 12 12 12 12 12 12 12 12 12 12 12 12 12 12 12 12 12
3 2 2 3 3 3 3 3 4 4 3 3 3 3 3 3 3 2 1 0 1 2 3 3 3 3 2 2 3 3 4 5 7 8 9 10 11 12 12 11 9 8 8 8 7 7 7 8 7 7 7 7 7 7 8 8 9 9 10 10 11 11 12 12 12 12 12 13 13 12 12 12 12 12 12 12 12 12 12 12 12 12 12 12 12 12
4 4 4 4 4 4 4 4 4 4 4 3 2 2 2 1 0 1 2 3 3 3 4 4 3 3 3 3 4 5 6 7 8 9 10 11 12 12 12 11 9 8 8 7 7 7 8 8 8 8 8 8 8 8 9 9 10 10 11 11 12 12 12 13 13 13 13 13 13 12 12 12 12 12 12 11 11 11 11 11 11 12 12 12 12 13
5 4 4 4 4 4 4 3 3 3 2 2 1 1 1 2 3 3 4 4 4 4 4 4 4 4 4 5 5 6 7 8 9 9 10 11 12 11 11 11 11 10 9 8 8 8 9 9 8 8 8 9 9 9 10 10 11 11 12 12 13 13 13 13 13 13 13 12 12 12 12 12 12 11 11 11 11 11 11 12 12 12 12 12 13 13
4 4 3 3 3 3 3 3 2 1 1 1 1 2 2 3 4 5 5 4 4 4 4 4 4 4 4 5 6 7 8 9 10 11 11 12 12 12 12 11 11 11 10 10 10 11 11 11 10 10 10 10 10 11 11 12 13 13 14 14 14 14 13 13 12 12 12 12 12 12 12 12 12 12 12 12 12 12 12 12 12 13 13 13 14 14
3 3 2 2 2 2 2 2 2 2 2 2 3 3 3 4 4 4 4 4 3 3 3 4 4 4 5 5 6 8 9 10 11 12 12 13 13 13 13 12 11 11 11 12 12 12 12 13 13 13 13 13 14 14 14 15 15 15 15 14 14 13 12 11 11 11 11 11 11 11 12 12 12 12 12 12 12 12 12 13 13 13 14 14 15 15
2 1 1 1 1 1 2 2 2 3 3 3 4 4 3 3 4 4 3 3 3 3 3 3 4 5 6 7 8 9 10 11 12 12 13 14 15 15 15 14 12 11 11 11 12 12 12 12 13 14 14 15 15 15 15 15 15 14 13 12 11 10 10 10 11 11 11 11 12 12 12 12 12 12 12 13 13 13 13 13 14 14 15 15 15 15
2 1 1 1 2 2 3 3 4 4 4 4 4 4 4 4 4 4 3 2 2 3 4 4 5 5 7 8 9 10 10 11 11 13 14 15 16 17 17 16 14 12 11 10 10 10 10 11 11 12 13 13 13 13 13 13 12 11 10 9 9 10 10 11 11 11 11 12 12 12 12 12 13 13 13 13 13 13 14 14 14 15 15 15 16 16
4 3 4 4 4 4 4 4 4 4 4 4 4 4 4 4 4 3 2 2 2 3 4 5 6 7 7 8 8 9 9 10 11 13 15 17 18 19 18 17 15 13 11 9 8 7 8 8 9 9 10 10 10 10 10 10 9 9 9 9 10 10 11 11 11 12 12 12 12 12 12 13 13 13 13 14 14 14 14 15 15 15 15 16 16 16
5 5 6 6 5 5 5 5 5 4 4 4 4 4 3 2 2 2 2 2 3 4 5 6 7 7 7 7 7 7 9 10 12 15 18 20 21 19 17 16 14 12 10 8 6 5 5 6 7 7 8 8 9 9 9 8 8 8 9 10 10 11 11 11 12 12 12 12 12 13 13 13 13 14 14 14 14 15 15 15 15 15 16 16 16 16
5 6 6 6 6 6 6 6 5 5 4 4 3 3 2 2 2 2 2 3 4 4 5 5 5 6 7 7 7 7 9 11 15 18 20 22 21 19 16 14 13 11 9 6 5 4 4 5 6 6 7 8 8 8 8 8 8 9 10 10 11 11 11 11 12 12 12 12 13 13 13 13 14 14 14 14 14 15 15 15 15 15 16 16 16 16
6 6 6 6 6 5 5 5 5 5 4 4 3 3 3 3 3 3 4 4 4 5 5 5 5 6 6 7 7 8 12 14 17 20 21 21 20 18 14 12 11 9 8 6 5 5 5 6 6 7 7 7 8 8 8 9 9 10 10 10 11 11 11 11 12 12 12 12 13 13 13 13 13 14 14 14 14 14 15 15 15 15 15 15 16 16
5 5 5 5 5 5 5 5 4 4 4 4 4 4 4 5 5 6 6 6 6 6 6 6 6 7 8 9 10 12 15 16 18 19 19 19 18 17 13 11 9 8 8 7 7 7 7 7 7 8 8 8 8 8 8 9 9 10 10 10 11 11 11 11 11 12 12 12 12 12 12 13 13 13 13 14 14 14 14 15 15 15 15 16 16 16
4 4 3 3 3 3 3 3 4 4 5 5 6 7 7 7 7 8 8 8 8 9 9 9 8 9 10 11 12 14 15 16 16 16 16 16 17 15 12 9 8 9 9 9 9 9 9 9 9 8 8 8 8 9 9 9 10 10 10 10 11 11 11 11 11 11 11 11 11 12 12 12 13 13 13 14 14 14 15 15 15 16 16 16 17 17
3 2 3 3 3 3 3 4 5 6 7 8 9 9 9 9 9 9 9 9 10 10 10 9 9 10 11 12 13 14 15 15 14 13 13 14 14 13 10 9 8 10 11 11 11 11 11 10 10 9 9 9 9 9 10 10 10 10 10 10 10 10 10 10 10 10 10 11 11 12 12 12 13 13 14 14 14 15 15 16 16 16 16 17 17 17
2 2 3 4 5 5 6 7 8 9 10 10 11 11 10 10 10 10 10 10 10 10 10 10 11 12 13 14 14 14 14 12 12 11 11 11 11 11 9 8 9 11 13 14 13 12 12 11 10 10 10 10 10 10 10 10 10 10 9 9 9 9 9 9 10 10 10 11 12 12 13 13 14 14 14 15 15 15 15 16 16 16 17 17 17 17
3 3 5 6 6 7 8 9 10 10 11 11 11 11 11 11 10 10 10 10 10 10 11 12 12 13 14 13 13 12 11 10 10 10 8 7 8 9 9 10 11 13 15 15 15 15 14 13 12 11 11 10 10 10 10 10 9 8 8 8 8 8 9 9 9 10 11 12 13 14 14 14 14 14 14 14 15 15 15 15 15 16 16 16 17 17
3 4 4 5 6 7 8 9 9 9 10 10 10 10 11 11 11 11 11 11 11 11 12 13 13 14 13 12 12 11 10 9 9 8 7 6 8 10 11 11 13 14 16 16 17 17 17 16 14 12 10 9 9 9 9 8 8 7 7 7 7 8 8 9 10 11 13 14 14 14 14 14 14 14 14 14 14 14 14 15 15 15 16 16 17 17
4 4 4 5 6 7 7 8 8 8 9 10 10 10 10 10 11 11 11 11 11 11 12 12 13 13 13 11 10 9 8 8 8 8 7 7 9 11 11 11 13 14 16 18 19 19 19 18 15 11 7 6 6 7 7 7 6 6 6 6 7 8 9 11 12 14 14 15 15 14 14 14 13 13 14 14 14 14 14 15 15 15 16 16 17 17
4 5 5 6 7 7 8 8 9 9 9 10 10 10 10 11 11 11 11 11 11 11 11 12 12 12 12 11 10 9 8 8 8 9 8 7 8 10 10 11 12 15 18 20 21 21 20 18 14 9 4 4 5 6 6 6 6 5 6 7 8 10 11 13 14 15 15 15 14 13 13 13 13 13 14 14 14 14 14 15 15 15 16 17 17 18
6 7 7 8 9 9 9 10 10 10 10 9 10 10 11 11 11 11 11 11 10 10 10 11 11 11 11 10 10 9 9 9 9 9 9 9 9 9 10 11 13 16 19 21 22 21 19 16 12 6 2 3 5 6 6 6 6 6 7 9 10 12 14 15 15 15 14 13 12 12 12 13 13 13 14 14 14 14 14 15 15 15 16 17 17 18
10 10 11 11 11 11 12 12 13 13 12 11 10 9 10 11 11 11 11 10 10 10 10 10 10 9 9 9 10 11 11 10 9 9 9 9 7 7 10 12 14 17 19 21 22 21 17 13 8 3 1 3 5 6 6 6 7 8 10 12 13 14 14 14 13 12 12 11 11 12 12 13 13 14 14 14 14 14 14 15 15 15 16 16 17 19
12 12 12 12 11 11 12 12 13 12 12 12 10 9 9 10 11 11 11 10 10 10 11 11 10 10 10 11 12 12 12 9 7 6 6 7 7 8 11 13 14 16 18 19 19 17 13 10 6 2 2 4 6 6 7 7 8 11 13 14 14 13 12 11 10 10 11 11 11 12 13 13 14 14 14 14 14 14 14 15 15 15 15 16 17 18
13 13 13 13 12 11 10 10 10 10 10 10 10 9 10 11 11 11 11 10 10 10 11 11 11 11 10 11 11 10 7 4 3 4 6 7 8 9 12 12 13 14 15 15 12 10 10 9 5 1 3 5 6 7 8 10 12 14 14 13 11 10 10 10 10 11 12 12 12 13 13 14 14 14 14 14 14 14 14 14 14 15 15 16 17 18
15 15 16 16 14 11 9 8 8 7 8 8 8 9 9 10 10 10 10 10 10 10 10 11 11 10 10 9 6 4 4 3 4 6 9 9 10 11 12 12 12 12 12 10 7 5 6 7 4 1 3 7 10 12 14 15 14 13 12 11 11 10 11 12 13 13 14 13 13 13 13 13 13 13 13 13 14 14 14 14 14 15 15 16 17 18
16 17 18 18 15 12 9 7 7 6 6 6 7 7 7 8 8 9 9 9 9 9 9 9 10 10 10 9 7 6 7 7 8 9 11 11 11 12 12 11 11 11 10 9 6 4 3 5 7 9 13 15 18 18 17 15 13 12 11 11 12 13 13 14 15 15 15 15 14 14 13 12 12 12 12 12 13 13 14 13 14 14 15 15 16 17
17 18 19 18 15 12 8 7 6 6 6 6 6 6 6 7 7 7 8 8 8 8 8 9 9 10 10 11 12 12 12 12 11 10 10 11 11 12 11 11 11 11 11 10 8 8 7 9 13 16 18 18 18 17 17 15 13 11 11 12 13 15 15 16 16 17 16 16 15 14 13 12 12 12 12 13 13 14 14 13 13 13 13 14 16 17
18 19 19 18 14 10 7 6 6 6 6 6 6 5 6 6 6 7 7 7 8 8 8 9 9 10 11 12 13 13 14 13 11 10 9 10 11 11 12 12 12 11 11 10 10 10 11 13 14 15 16 16 16 15 15 14 12 11 11 13 14 16 17 17 17 17 16 16 15 14 14 13 13 14 14 14 14 14 14 13 12 12 13 14 15 17
19 20 20 17 13 9 7 6 5 5 5 5 5 5 5 6 6 7 7 8 9 9 10 10 10 11 12 12 13 14 14 13 12 11 10 11 12 12 13 12 11 11 11 11 10 10 11 13 14 14 15 16 16 15 14 12 12 12 13 14 16 17 18 18 17 17 16 16 15 15 15 15 16 16 16 16 16 15 14 14 14 14 14 15 16 17
21 21 20 15 11 8 6 6 6 5 5 5 5 6 6 7 8 8 9 10 10 11 11 12 12 12 13 13 14 15 16 16 15 13 12 13 13 13 13 12 12 11 11 11 11 11 11 13 14 15 15 15 15 15 14 13 13 14 15 16 17 18 18 17 16 16 16 16 16 17 17 17 18 18 18 17 17 16 15 15 16 16 17 17 17 17
22 20 17 12 8 7 7 7 7 6 6 6 6 7 7 8 9 10 11 11 12 13 13 13 13 13 14 14 15 16 17 17 17 15 14 14 14 14 14 14 13 12 12 12 12 12 13 13 14 15 14 14 13 14 15 16 16 17 17 18 18 18 18 16 15 14 15 16 17 18 18 19 19 19 19 18 18 18 18 18 18 18 18 18 17 17
19 16 13 9 7 7 7 8 8 7 7 7 8 8 9 10 11 12 13 13 14 14 15 15 15 14 14 14 15 16 16 16 16 15 15 14 15 15 16 16 15 14 14 14 14 14 14 13 13 13 13 14 14 15 17 17 18 18 19 19 18 17 16 15 14 14 15 17 18 19 19 19 19 19 19 19 20 20 20 20 20 19 19 19 18 18
14 12 9 7 6 6 7 7 8 8 8 9 9 10 11 12 13 14 14 15 15 15 15 15 14 14 14 14 14 14 15 15 15 15 14 14 15 15 17 17 17 17 16 16 16 15 15 14 13 12 12 14 16 17 18 18 18 19 20 20 19 17 15 14 14 15 17 18 19 19 19 19 19 19 20 20 21 21 21 21 21 21 20 21 21 21
11 9 7 6 6 6 7 7 8 8 9 9 10 11 12 13 14 14 14 14 13 13 12 12 12 12 12 12 13 13 13 14 14 13 13 13 13 14 15 17 17 17 17 16 16 16 16 15 15 15 15 15 17 18 18 19 18 19 19 19 18 17 17 17 17 17 18 18 18 18 19 19 20 20 20 21 21 21 21 21 22 22 21 21 22 23
9 8 7 6 6 7 7 8 8 9 9 10 11 12 13 13 14 13 12 11 9 8 8 8 9 10 11 11 12 12 12 12 11 11 10 10 11 11 13 14 15 16 16 16 16 17 17 16 16 17 17 17 18 19 19 19 19 18 18 18 19 20 21 20 18 17 17 17 17 18 19 20 21 21 21 21 21 21 21 21 22 22 22 21 21 22
8 7 7 7 7 8 8 8 8 9 9 10 12 13 13 13 13 12 11 10 8 8 8 9 10 12 13 13 13 12 11 10 9 8 9 9 9 10 11 12 13 14 15 16 17 17 17 17 17 17 17 17 17 18 19 20 19 18 18 18 20 21 22 20 17 16 16 18 19 19 20 20 21 21 22 22 22 22 22 22 22 22 21 21 21 21
8 8 8 8 8 8 8 8 8 9 10 11 13 13 13 12 11 10 10 10 10 10 10 11 12 13 15 15 14 13 11 10 9 8 8 9 9 10 11 11 12 13 14 16 17 17 17 17 17 17 18 17 18 18 19 20 20 20 19 19 19 19 18 18 19 18 18 19 19 19 20 20 21 22 23 23 23 22 22 22 21 21 21 22 22 23
9 9 9 9 8 8 8 8 9 10 11 13 14 14 12 10 9 8 9 10 10 11 11 11 12 13 14 14 13 13 12 11 10 9 8 8 9 9 10 11 12 12 14 16 17 17 17 17 17 17 18 18 18 19 20 20 21 20 20 19 18 18 18 19 20 20 20 20 19 19 20 21 22 23 23 23 22 22 22 22 22 23 23 23 23 24
10 9 9 9 8 8 9 9 10 11 12 13 13 12 10 8 7 8 9 10 10 10 11 11 12 12 12 12 12 13 12 12 11 11 10 9 8 9 9 10 11 12 13 15 16 18 18 17 18 18 18 18 18 19 19 20 21 21 21 19 19 19 20 21 21 20 21 21 21 21 21 22 23 23 23 23 22 22 22 22 23 23 23 23 23 23
9 9 9 9 9 9 9 9 10 11 12 13 12 11 8 7 7 8 9 9 10 11 11 11 11 11 11 12 13 13 14 14 13 13 12 11 9 9 9 9 10 11 12 14 15 17 18 19 19 19 19 18 19 19 20 20 20 20 21 20 19 19 20 20 20 20 20 20 21 22 22 22 22 22 22 22 23 23 22 21 21 21 22 22 23 23
8 8 8 9 9 9 10 10 11 12 12 13 12 10 8 7 7 8 8 8 9 10 11 11 11 11 12 13 14 14 14 15 14 14 13 12 12 11 10 9 10 11 12 13 15 16 17 19 20 20 20 19 19 20 20 20 19 19 20 20 19 19 20 20 20 20 19 20 21 22 22 23 22 22 21 22 22 22 22 21 20 20 21 21 21 21
8 8 8 9 9 10 11 11 11 12 12 12 12 10 8 7 7 7 8 8 9 10 11 12 12 12 13 14 14 14 14 14 15 14 14 14 14 13 12 11 11 11 12 14 15 16 18 18 19 20 21 21 20 20 20 20 19 19 19 19 19 19 20 20 20 20 19 20 21 22 22 22 21 21 22 22 22 22 22 21 20 20 20 20 20 21
8 9 9 9 10 10 11 11 11 11 12 12 11 10 8 7 7 8 9 9 10 11 12 12 12 13 13 13 14 14 14 14 15 15 15 15 15 14 14 13 13 13 14 15 16 17 18 18 19 19 20 22 22 22 22 21 20 20 19 19 19 19 20 20 21 20 20 20 21 21 21 21 21 21 21 21 21 23 23 22 21 20 20 20 21 22
9 9 10 10 10 10 11 11 11 11 11 10 10 10 10 9 9 9 10 11 11 12 13 13 13 13 13 14 14 14 14 14 15 15 15 15 14 14 14 14 14 14 14 14 14 14 15 16 17 18 18 19 20 22 22 22 22 21 20 20 19 20 20 21 21 21 21 21 21 21 21 21 20 20 20 20 21 23 24 23 22 21 20 20 20 22
10 10 10 10 10 11 10 10 10 10 10 10 10 10 10 11 11 11 11 12 12 13 13 13 14 14 14 14 14 14 14 14 15 15 16 15 15 14 14 14 14 13 13 12 12 12 12 12 12 14 16 16 16 18 20 22 22 22 21 21 21 21 21 21 22 22 21 21 21 21 20 20 20 19 18 19 20 22 23 23 22 21 20 20 20 22
Wind_Direction
220 222 224 230 230 226 223 226 223 219 217 218 224 233 240 242 244 246 249 253 258 264 270 273 275 275 272 267 256 241 227 219 221 233 254 273 289 295 296 296 292 289 288 288 288 289 288 287 286 285 283 281 280 279 278 278 277 277 277 277 277 277 277 277 276 276 277 277 278 277 275 275 276 278 281 283 282 281 281 284 285 284 284 284 284 284
215 217 214 220 222 222 224 231 232 229 229 232 237 243 250 255 259 263 267 272 276 280 281 279 272 260 242 225 210 202 199 204 228 273 298 302 301 299 295 293 291 289 288 289 289 289 287 286 285 283 282 281 281 280 280 278 277 277 276 276 276 275 275 276 276 276 277 277 278 278 278 278 279 280 281 282 281 280 280 280 281 282 281 281 281 280
218 219 219 227 230 230 234 241 246 248 249 250 252 256 260 264 268 273 278 283 286 285 277 247 202 176 157 120 45 27 23 352 317 307 301 294 289 286 285 285 286 287 290 290 290 290 289 287 285 284 283 281 281 280 281 279 277 275 274 274 273 273 273 274 274 274 275 276 277 277 278 278 278 278 279 280 280 279 278 279 279 279 279 280 280 279
230 229 240 250 251 250 254 260 266 272 273 272 271 270 271 272 275 278 282 283 277 167 142 138 126 101 59 36 26 22 16 341 292 284 285 282 281 282 286 290 294 296 297 296 294 293 291 288 286 284 282 281 280 279 279 278 276 273 270 270 271 271 271 272 273 274 274 275 276 276 277 277 277 277 277 277 277 277 277 278 278 278 278 279 280 281
249 263 272 273 271 270 278 283 289 294 295 292 288 286 285 282 278 268 211 145 131 124 118 105 80 48 32 25 22 20 12 324 282 276 279 281 286 293 299 303 304 303 303 300 297 295 292 289 286 283 281 279 278 277 274 273 272 271 272 274 277 279 278 279 279 280 279 279 279 279 278 278 277 276 275 276 276 276 278 279 279 280 280 280 281 281
36 323 302 297 293 299 314 321 327 330 329 327 325 341 70 107 121 128 130 129 122 110 87 53 24 9 4 1 2 5 358 296 276 273 275 280 290 299 303 306 306 305 305 303 300 297 292 290 288 286 284 282 279 276 274 273 275 278 282 283 284 284 283 282 281 280 280 280 280 280 280 280 279 278 276 276 277 277 279 279 280 281 281 281 281 281
77 17 358 353 354 360 12 27 39 48 55 70 87 98 106 113 118 121 123 119 97 14 338 328 322 320 314 310 305 297 280 260 260 265 272 280 288 296 302 306 308 308 307 305 302 298 295 294 295 295 294 292 289 285 284 283 283 284 284 281 280 278 277 277 277 278 278 278 278 278 278 278 278 278 277 277 276 277 278 278 279 280 280 280 280 280
109 87 69 61 58 58 65 73 79 85 88 92 97 104 109 111 115 118 108 327 311 305 302 301 301 298 294 291 288 282 274 267 268 274 281 288 295 300 303 305 306 305 304 302 299 295 294 293 294 295 295 294 293 291 287 283 281 280 278 277 276 275 275 276 277 277 278 278 278 277 277 277 277 276 276 276 276 276 276 277 278 278 279 279 280 281
117 108 98 89 80 76 76 85 93 97 96 98 99 100 101 93 46 333 316 306 301 299 297 296 295 292 287 283 280 277 275 276 281 287 293 299 304 306 306 303 299 294 292 293 293 291 289 287 286 285 286 286 286 285 282 280 279 277 275 275 274 275 275 275 275 275 276 276 277 277 277 277 276 276 275 275 276 276 276 276 277 278 279 280 280 281
114 110 105 101 95 87 76 80 91 98 94 89 73 27 342 321 314 311 309 305 301 297 291 285 279 276 274 273 273 273 276 281 286 292 297 303 307 308 304 297 290 285 282 283 284 284 282 281 280 281 282 282 282 280 278 277 275 274 273 273 273 274 274 274 274 274 275 276 276 276 276 276 276 275 275 276 276 276 276 277 278 278 280 280 281 282
109 107 103 99 96 91 77 69 70 71 50 11 343 330 321 310 302 298 294 289 285 283 278 273 269 267 266 269 272 277 280 284 288 292 296 302 306 306 301 294 287 281 277 275 275 275 275 276 276 277 277 276 274 273 273 272 272 272 273 273 273 273 274 275 275 275 276 276 276 276 276 276 276 276 276 276 277 277 278 278 279 279 280 280 281 281
99 94 89 81 73 67 59 47 36 17 354 336 320 308 301 298 297 294 290 278 267 263 266 271 271 271 272 276 281 286 288 290 292 295 298 302 306 308 306 300 291 283 276 272 270 271 273 273 272 271 271 270 269 269 270 271 272 273 274 275 275 275 276 277 277 277 277 277 277 277 277 277 277 277 278 278 279 279 280 279 280 280 280 280 280 280
79 58 31 11 9 10 8 1 354 347 339 328 311 299 299 304 308 310 308 295 271 259 262 267 274 279 284 287 291 293 295 295 296 298 301 305 309 311 311 308 303 294 284 275 271 270 271 270 268 267 267 267 268 268 269 271 272 273 274 276 277 279 279 279 279 278 278 278 278 278 278 278 278 278 279 280 280 280 280 280 280 280 280 280 279 280
48 30 15 7 2 356 351 347 346 344 337 330 324 321 322 321 321 322 321 302 279 273 275 273 275 283 292 294 295 296 297 297 298 300 303 306 309 311 312 311 309 304 296 286 278 273 269 266 264 263 263 263 264 265 266 267 268 269 273 277 280 281 280 279 278 278 279 279 279 279 280 280 279 279 279 279 280 280 280 280 280 280 280 280 279 280
27 16 7 3 3 2 358 354 352 350 345 341 338 335 331 325 322 320 314 290 281 284 284 283 287 291 293 293 294 295 296 296 298 301 303 305 307 310 312 311 310 307 302 294 285 274 266 261 259 258 257 257 257 258 258 259 261 266 275 279 280 280 280 279 279 279 280 279 279 280 280 280 279 278 279 279 279 279 279 279 278 278 278 278 279 279
19 11 5 0 2 5 5 3 1 357 351 348 345 344 344 333 320 306 295 287 287 292 298 305 306 302 294 290 290 292 294 296 300 303 305 306 307 309 312 312 310 307 303 298 289 276 264 256 254 253 252 251 250 249 251 257 263 270 276 279 279 279 280 280 279 279 280 279 279 280 280 279 278 278 279 278 278 278 278 277 277 277 277 277 277 278
18 14 11 7 9 11 8 3 360 358 354 351 348 342 334 326 313 305 297 293 299 306 310 311 307 301 295 293 292 293 297 302 306 307 308 307 308 310 314 313 311 307 304 300 294 286 275 268 262 257 254 251 249 249 252 259 267 273 276 278 279 279 279 279 279 279 279 279 279 280 280 279 279 279 279 279 278 278 277 277 277 277 276 276 276 277
17 13 8 7 8 5 357 351 348 346 347 351 350 343 333 327 322 319 315 312 314 319 319 313 303 295 293 294 295 298 302 307 309 310 310 308 309 312 317 316 312 308 305 303 303 300 295 287 280 272 265 258 255 256 259 263 268 271 272 275 277 278 279 279 279 279 279 280 279 280 280 280 280 280 280 279 279 278 277 277 277 276 276 276 276 276
10 1 353 353 350 343 331 328 331 335 341 344 346 345 343 335 330 326 323 320 320 319 318 312 303 296 294 293 295 301 305 309 311 312 311 309 310 315 320 319 315 310 308 308 309 308 304 296 287 280 273 268 265 265 264 265 266 268 271 274 276 277 278 279 280 280 280 280 281 282 282 282 282 281 281 280 279 279 278 277 277 277 277 277 277 277
350 338 328 328 329 327 323 324 326 329 332 333 334 334 335 332 329 326 322 321 319 317 314 309 302 298 298 299 302 305 309 312 314 314 310 308 310 315 321 321 316 310 308 308 309 309 305 298 291 284 279 276 274 272 269 267 267 269 272 275 276 277 278 279 279 280 281 282 283 284 283 283 283 283 282 281 280 280 279 278 278 278 278 278 278 278
326 319 314 313 320 328 332 326 324 322 321 320 319 319 321 323 323 320 317 316 315 314 312 306 302 301 302 303 305 308 311 315 317 315 310 307 308 312 318 319 314 308 306 305 307 306 303 298 292 289 287 284 281 276 271 267 267 268 271 274 276 276 277 279 280 281 283 284 285 285 285 285 284 283 282 282 281 280 280 280 279 279 279 279 279 279
330 328 318 312 315 318 317 316 315 313 310 307 307 308 310 312 312 311 310 310 310 308 306 304 303 304 303 304 306 309 311 313 313 312 309 303 302 307 316 316 311 306 305 306 306 306 303 299 296 296 294 290 283 275 268 266 265 266 269 272 275 276 278 280 281 284 286 288 289 289 288 287 286 285 284 283 283 282 282 282 281 281 280 280 280 280
327 318 311 311 310 309 308 308 307 305 302 299 297 298 299 301 302 303 303 304 305 304 304 305 304 303 302 304 306 307 308 310 310 310 306 295 296 303 311 311 309 306 306 308 309 308 306 303 304 304 300 291 280 270 264 262 261 261 264 269 272 275 278 281 284 286 289 291 292 292 291 289 288 287 287 286 286 286 285 285 284 283 282 281 281 280
318 310 302 303 304 303 303 303 304 304 302 300 298 296 296 296 296 296 297 299 300 300 301 302 302 302 302 303 305 306 306 307 308 308 302 289 290 298 305 308 309 309 308 309 310 310 309 308 310 310 303 288 274 263 257 256 255 256 259 264 270 275 279 282 286 288 290 292 293 292 292 292 291 290 289 289 289 288 288 287 286 285 283 283 282 281
315 312 313 314 314 313 312 313 311 308 308 303 300 297 295 292 290 289 289 289 291 294 297 299 300 300 301 304 306 306 305 306 306 304 298 290 290 294 301 308 311 312 311 310 311 311 312 314 315 314 300 278 261 252 245 243 244 246 252 260 267 273 279 283 286 289 291 292 292 292 292 293 293 292 291 291 290 290 289 288 287 285 284 284 283 282
317 315 317 318 317 313 309 307 302 299 302 302 301 300 296 291 287 285 284 285 287 291 295 296 296 297 299 302 304 304 305 305 304 301 294 289 291 294 300 310 315 317 315 313 313 314 317 320 322 320 296 248 235 235 231 228 228 234 246 258 267 275 282 286 288 289 290 291 291 290 291 292 293 293 292 292 291 291 290 289 288 286 285 285 284 283
310 310 309 306 302 298 295 290 287 285 286 288 293 295 293 289 285 281 279 281 285 290 293 294 295 296 298 300 300 301 304 304 302 297 292 289 289 293 302 314 320 321 320 317 316 318 321 324 327 327 281 210 213 221 224 225 231 244 258 272 280 285 288 289 290 290 289 288 287 289 291 292 293 293 293 292 292 291 291 289 288 287 287 286 284 282
304 307 307 304 300 294 288 283 279 277 276 277 279 283 285 284 281 278 277 279 283 285 285 285 288 292 296 298 299 302 304 301 295 292 293 292 290 295 307 318 323 325 326 322 320 321 324 329 332 331 225 205 212 220 227 236 250 266 279 287 291 292 291 290 290 289 289 289 289 290 291 292 293 293 292 292 291 290 290 289 289 289 288 286 284 282
304 310 314 315 309 298 288 281 278 275 274 273 273 273 274 273 274 275 276 278 279 278 276 276 279 284 291 297 302 304 304 299 294 296 301 304 301 302 313 321 327 330 332 329 326 325 327 332 334 317 231 218 221 227 238 257 275 286 292 294 294 294 294 294 294 295 295 295 295 294 293 293 292 291 291 290 289 289 289 289 290 290 289 287 285 284
309 315 321 324 319 308 293 283 277 274 273 272 269 265 263 262 266 270 273 275 275 273 272 273 275 280 288 299 306 309 308 309 322 330 325 320 313 311 318 322 327 332 337 337 334 329 324 327 327 260 220 226 233 244 261 280 291 296 299 300 300 301 303 306 307 307 305 303 300 297 294 292 290 289 288 288 288 288 288 290 290 291 289 287 286 285
315 320 325 327 325 317 301 286 277 275 276 274 272 268 265 264 265 268 271 272 272 271 272 273 275 279 284 294 303 307 299 319 331 332 330 324 315 312 316 319 323 328 336 342 341 328 321 322 324 272 251 271 278 283 290 297 303 307 309 311 312 314 316 317 316 314 311 307 303 299 295 292 290 288 287 286 287 287 288 289 290 289 289 288 287 287
315 319 323 326 325 319 305 291 283 283 285 285 283 278 275 271 270 270 271 271 270 271 272 274 276 278 279 278 273 268 274 288 302 315 320 317 310 307 310 313 316 319 324 328 320 302 300 303 302 301 298 298 299 302 307 312 317 320 321 319 317 317 319 319 318 315 312 309 307 304 301 298 295 293 291 291 290 290 289 289 289 288 289 289 289 290
312 316 320 322 321 316 304 294 290 292 295 295 293 288 281 275 271 270 269 270 270 271 272 274 277 279 279 276 272 271 273 279 287 298 306 305 303 303 304 307 308 310 312 310 299 283 274 279 290 297 301 302 303 307 312 317 322 322 320 316 313 313 316 317 316 314 313 312 311 310 309 307 305 303 301 299 298 297 295 293 290 289 289 290 292 293
309 313 317 319 317 310 298 290 290 292 295 294 291 286 280 275 271 270 269 270 271 272 273 275 278 280 281 280 278 276 276 278 283 290 295 296 296 298 300 301 302 304 306 303 297 288 280 280 287 295 300 302 302 303 306 312 316 317 314 310 309 309 312 314 315 315 315 315 315 314 313 313 312 310 308 307 306 304 302 299 295 292 290 290 290 291
307 310 314 315 312 303 291 283 283 284 284 284 281 279 276 275 274 273 273 274 275 275 275 277 279 281 282 281 281 280 280 281 285 288 290 288 290 293 295 294 295 297 298 296 295 293 289 288 290 294 300 303 303 303 304 308 312 311 308 306 306 307 310 313 315 315 315 315 314 314 315 315 314 312 311 310 310 309 306 301 297 293 289 286 286 286
306 308 311 311 306 293 283 278 277 277 276 274 274 273 273 272 273 274 275 276 277 278 279 280 281 282 282 282 281 281 282 284 286 286 285 283 284 285 286 285 286 288 289 289 289 290 292 293 294 296 298 300 302 304 306 309 310 309 306 306 306 308 310 312 314 313 313 312 311 311 312 312 312 311 311 311 310 308 303 298 295 292 290 288 286 285
304 306 307 305 295 282 277 276 275 275 275 274 274 274 274 275 276 277 279 280 281 283 284 285 286 285 283 282 281 282 283 285 286 285 283 282 280 278 276 277 279 281 280 281 284 287 290 293 296 297 297 295 297 301 306 309 310 308 306 306 307 308 309 311 312 311 309 308 308 308 309 309 310 310 310 310 308 305 300 298 297 297 297 296 293 290
303 303 302 295 284 277 279 281 282 283 284 284 284 283 284 284 286 287 287 287 286 287 287 287 287 286 284 282 281 281 283 284 284 284 283 281 279 276 273 273 275 276 274 275 278 282 285 288 293 296 296 295 295 297 302 306 308 308 307 308 308 308 309 310 310 309 307 306 306 306 307 308 309 308 308 307 305 304 303 303 303 304 304 302 300 297
300 299 294 285 278 282 290 295 298 298 296 293 291 291 292 293 293 293 294 292 291 289 288 287 286 285 284 283 282 282 282 282 282 281 279 277 275 273 272 272 272 273 274 274 274 275 276 278 282 287 292 296 298 299 301 304 306 307 309 311 311 309 309 309 309 307 306 305 306 306 307 307 307 306 305 304 304 304 304 305 306 307 307 306 304 302
297 293 286 279 279 286 295 299 301 300 297 297 297 298 299 300 301 301 299 297 294 291 288 287 286 287 287 287 286 285 284 282 280 278 276 273 271 269 270 270 271 272 274 274 273 271 270 271 273 277 282 288 293 297 300 301 303 306 310 311 310 308 308 308 307 306 305 305 306 306 306 306 305 304 304 304 304 304 304 304 305 305 305 303 302 301
292 287 283 281 285 289 292 293 293 294 296 298 300 301 303 304 305 305 304 303 300 296 294 290 291 291 287 286 287 288 288 286 284 281 278 274 271 268 267 269 271 273 275 274 272 270 268 268 271 274 278 282 287 291 293 295 298 302 305 304 303 303 305 306 306 305 306 305 305 305 305 305 305 305 304 304 303 303 303 302 302 302 302 300 298 296
288 285 282 284 288 290 290 292 292 294 297 299 300 301 303 305 308 309 310 311 312 313 314 312 310 308 306 303 300 299 299 298 296 291 284 278 274 270 268 269 271 273 274 273 270 269 268 268 270 272 276 280 284 288 290 292 294 296 297 297 299 303 305 304 304 306 306 306 305 305 305 304 304 304 305 304 303 302 301 300 299 298 297 296 295 293
285 284 283 284 286 288 289 291 292 293 296 298 300 301 302 304 305 307 309 310 312 314 316 315 314 312 309 308 308 309 309 308 303 295 288 282 277 273 271 270 271 272 273 272 270 269 270 270 269 269 273 277 280 283 286 289 292 293 293 294 297 300 302 301 303 306 306 305 304 304 304 303 304 304 304 303 301 300 299 298 296 295 293 292 291 290
284 283 284 284 286 287 287 286 287 290 293 297 301 302 301 301 300 300 300 303 306 308 310 311 311 309 304 301 303 307 308 308 306 300 293 286 280 276 275 274 274 274 274 273 270 270 272 272 270 271 274 276 277 278 281 285 288 290 291 291 291 290 289 293 298 302 302 302 301 301 301 302 303 304 303 301 299 298 297 296 295 295 293 292 291 290
282 282 282 282 283 283 283 284 288 293 297 302 304 305 302 296 291 290 294 299 303 305 306 309 309 305 300 300 304 307 307 305 306 306 304 299 292 287 285 284 283 281 279 278 276 275 273 272 274 277 279 277 275 274 276 280 283 286 288 288 288 286 285 288 292 295 296 298 298 298 300 302 303 302 300 298 297 296 295 295 294 294 294 294 293 290
275 275 274 275 276 278 283 287 292 298 302 306 307 304 298 289 284 285 290 297 303 305 306 307 304 299 296 299 304 306 306 306 305 307 308 309 308 305 300 294 290 287 286 284 283 282 279 276 277 279 281 279 277 274 273 275 278 282 284 286 287 287 287 287 288 289 291 293 294 296 299 301 301 298 295 295 295 296 295 294 293 293 293 293 292 290
271 271 271 272 275 278 282 287 293 299 303 305 305 301 291 281 278 281 285 292 298 302 303 302 298 293 292 295 298 301 302 304 305 306 306 308 309 310 307 301 295 290 288 287 287 284 282 281 280 278 277 276 276 276 275 274 274 276 279 283 285 286 286 287 288 288 289 289 291 294 298 299 298 296 294 294 295 296 295 294 292 292 293 293 291 289
267 269 270 272 276 279 282 286 291 296 300 302 302 299 290 278 273 278 282 287 292 295 295 293 291 289 289 290 293 295 298 299 301 302 303 304 305 306 306 304 300 295 291 289 287 285 283 281 278 275 271 268 269 272 275 275 274 274 276 279 281 282 283 284 287 288 289 288 289 292 294 293 292 291 293 294 295 295 294 294 293 292 291 290 289 287
264 267 270 273 277 279 282 285 289 293 296 297 298 299 295 284 278 279 281 285 289 290 289 287 286 286 287 288 291 292 294 295 296 297 298 299 300 300 301 301 300 298 294 291 289 286 283 281 277 273 268 264 262 264 269 271 273 273 274 275 277 278 280 283 286 288 289 289 290 291 292 290 289 289 290 291 292 293 294 294 293 292 290 288 286 285
262 266 269 274 277 280 282 285 288 290 291 291 292 293 294 292 288 286 285 287 288 287 284 283 283 283 285 287 289 291 292 292 292 293 294 296 298 297 296 296 296 295 292 290 288 286 284 283 281 276 270 263 260 259 261 266 270 273 273 273 274 276 278 281 284 287 289 289 290 290 290 289 288 288 289 289 290 291 293 293 292 291 290 288 287 285
262 266 269 273 276 278 281 283 285 285 286 286 287 288 289 290 290 290 290 289 287 285 284 283 281 281 283 285 287 289 289 289 289 290 292 295 296 295 293 292 290 289 289 289 289 291 290 290 288 286 281 270 261 257 258 262 267 271 273 274 275 277 278 281 284 286 288 289 289 289 289 289 288 287 287 287 288 290 291 291 290 290 290 290 288 288
Height
810 810 810 810 810 811 811 812 812 813 813 814 814 813 813 814 814 815 815 816 816 816 817 817 817 817 817 817 817 817 817 817 818 818 818 818 819 819 820 821 821 821 821 821 821 820 820 820 820 820 820 820 820 820 820 820 820 820 820 820 820 820 820 820 820 820 820 820 820 819 819 819 819 819 818 818 817 817 817 817 817 817 817 817 818 818
810 810 810 810 811 811 811 811 812 812 813 813 814 814 814 814 814 815 815 815 816 816 816 816 816 816 816 816 816 816 816 816 816 817 817 818 819 820 820 821 821 821 821 820 820 820 820 819 819 819 819 819 819 819 819 818 818 818 818 818 819 819 819 819 819 819 819 819 819 818 818 818 818 817 817 817 817 817 817 817 817 817 817 817 817 817
810 810 811 811 811 811 811 811 811 812 812 813 813 813 813 814 814 814 814 815 815 815 815 815 815 815 815 815 815 816 816 816 816 817 817 818 819 820 820 821 821 820 820 820 819 819 819 818 818 818 818 818 818 817 817 817 817 817 817 818 818 818 818 818 818 818 818 818 818 817 817 817 817 817 816 816 816 816 816 816 816 816 816 816 816 816
811 811 811 811 811 811 811 811 812 812 812 812 812 812 813 813 813 813 814 814 814 814 815 815 815 815 815 815 815 815 815 816 816 817 818 819 820 820 820 820 819 819 819 818 818 818 818 817 817 817 817 817 817 816 816 816 816 816 817 817 817 817 817 817 817 817 817 817 816 816 816 816 816 816 816 815 815 815 815 815 815 815 815 815 815 815
811 811 811 811 811 811 812 812 812 812 812 812 812 812 812 813 813 813 814 814 814 814 815 815 815 815 815 815 815 815 816 816 817 818 818 819 819 819 819 818 818 818 818 817 817 817 817 816 816 816 816 816 816 816 816 816 816 816 816 816 816 816 816 816 816 816 816 816 816 816 816 815 815 815 815 814 814 814 814 814 814 814 813 813 813 813
811 811 812 812 812 812 812 812 812 812 812 812 812 813 813 813 813 814 814 814 814 814 815 815 815 815 815 815 815 815 816 816 817 817 818 818 818 818 817 817 817 817 817 816 816 816 816 816 816 815 815 815 815 815 815 815 815 815 815 815 815 815 815 815 815 815 815 815 815 815 815 814 814 814 814 813 813 813 813 813 812 812 812 812 812 812
812 812 812 812 812 812 812 812 812 812 813 813 813 813 813 814 814 814 814 814 815 815 815 815 815 815 815 815 815 815 815 816 816 817 816 816 816 816 816 816 816 816 816 816 816 815 815 815 815 814 814 814 814 814 814 814 814 814 814 814 814 814 814 814 814 814 814 814 814 814 814 813 813 813 812 812 812 812 812 811 811 811 811 811 811 811
812 812 812 812 812 812 812 812 812 813 813 813 813 814 814 814 814 814 814 814 814 814 814 814 814 814 814 815 815 815 815 816 816 816 816 816 816 816 815 815 815 815 815 815 815 814 814 814 814 813 813 813 813 813 813 813 813 813 813 813 813 813 813 813 813 813 813 813 813 813 812 812 812 812 811 811 811 811 811 811 810 810 810 810 810 810
812 812 812 812 812 812 812 813 813 813 813 814 814 814 814 814 814 814 814 814 814 814 814 814 814 814 814 814 815 815 815 815 815 815 815 815 815 815 814 814 814 814 814 814 814 813 813 813 813 812 812 812 812 812 812 812 812 812 812 812 812 812 812 812 812 812 812 812 811 811 811 811 811 811 811 810 810 810 809 809 809 809 809 809 809 809
812 812 812 813 813 813 813 813 813 813 814 814 814 814 814 814 814 814 814 814 814 814 814 814 814 814 814 814 815 815 815 815 815 815 815 814 814 814 814 813 813 813 813 813 812 812 812 812 811 811 811 811 811 811 811 811 811 811 811 811 811 811 811 811 811 811 811 811 811 810 810 810 810 810 809 809 809 808 808 808 808 808 808 808 808 808
813 813 813 813 813 813 813 813 814 814 814 814 814 814 814 814 814 814 814 814 814 814 814 814 814 814 814 814 814 815 814 814 814 814 814 814 814 813 813 812 812 812 812 812 811 811 811 811 811 811 811 811 810 810 810 810 810 810 810 810 810 810 810 810 810 810 810 809 809 809 809 809 809 808 808 808 808 807 807 807 807 806 806 806 806 806
813 813 813 813 813 813 814 814 814 814 814 814 814 814 814 814 814 814 814 814 814 814 814 814 814 814 814 814 814 814 814 814 814 813 813 813 813 812 812 812 811 811 811 811 810 810 810 810 809 809 809 809 809 809 809 809 808 809 809 808 808 808 809 809 809 809 809 808 808 808 808 808 807 807 807 807 806 806 806 806 806 805 805 805 805 805
813 814 814 814 814 814 814 814 814 814 814 814 814 814 814 814 814 814 814 814 814 814 814 814 814 814 814 814 814 814 813 813 813 812 812 812 811 811 811 810 810 810 809 809 809 809 809 808 808 808 808 807 807 807 807 807 807 807 807 807 807 808 808 808 808 808 808 807 807 807 807 806 806 806 806 806 805 805 805 804 804 804 804 804 804 804
814 814 814 814 814 814 814 814 814 814 814 814 814 814 814 814 814 814 814 814 814 814 814 814 814 814 814 813 813 813 812 812 811 811 811 811 810 810 809 809 808 808 808 807 807 807 807 807 806 806 806 806 806 806 806 806 806 806 807 807 807 807 807 807 807 807 807 806 806 806 806 806 805 805 805 804 804 804 803 803 803 803 803 803 803 803
814 814 814 814 814 814 814 814 814 814 814 814 814 814 814 814 813 813 813 813 813 813 813 813 813 813 813 813 812 812 812 811 811 810 810 809 809 809 808 808 807 807 806 806 806 806 806 806 805 805 805 805 805 805 805 806 806 806 806 806 806 806 806 806 806 806 806 805 805 805 804 804 804 804 803 803 803 802 802 802 802 802 802 802 801 801
814 814 814 814 814 814 814 814 814 814 814 814 814 814 814 813 813 813 813 813 813 813 813 813 813 813 813 812 812 812 811 811 810 809 809 808 808 808 807 806 806 806 806 805 805 805 805 805 805 804 804 804 805 805 805 805 805 805 806 806 806 806 805 805 805 805 804 804 804 803 803 803 802 802 802 801 801 801 801 801 801 801 801 800 800 800
814 814 814 814 814 814 814 814 814 814 814 814 814 813 813 813 813 813 813 813 813 813 813 813 813 812 812 812 811 811 811 810 809 808 808 806 806 806 806 806 805 805 804 804 804 804 804 804 804 804 804 804 804 804 804 804 804 804 804 804 804 804 804 804 803 803 803 802 802 802 801 801 801 801 801 800 800 800 800 799 799 799 799 799 799 799
814 814 814 814 814 814 814 814 814 814 814 814 814 813 813 813 813 813 813 813 813 813 812 812 812 812 811 811 811 811 810 809 808 807 806 805 805 805 805 805 804 804 803 803 803 803 803 803 803 803 803 803 803 803 803 803 803 803 803 803 803 803 802 802 802 802 801 801 801 801 800 800 800 799 799 799 799 798 798 798 798 798 798 798 798 797
814 814 814 814 814 814 814 814 814 814 814 814 814 813 813 813 813 813 813 812 812 812 812 812 812 811 811 811 810 810 809 809 808 806 805 804 803 803 804 803 803 803 802 802 802 802 802 802 802 802 802 802 802 802 802 802 801 801 801 801 801 801 801 801 801 800 800 800 799 799 799 798 798 798 798 797 797 797 797 797 796 796 796 796 796 796
814 814 814 814 814 814 814 814 814 814 814 813 813 813 813 813 813 812 812 812 812 811 811 811 811 811 810 810 809 809 808 808 807 806 805 803 802 802 803 803 802 802 802 802 802 802 801 801 801 801 801 801 801 801 801 800 800 800 800 800 800 800 800 800 799 799 799 798 798 798 797 797 797 796 796 796 796 796 796 795 795 795 795 795 794 794
814 814 814 814 814 814 814 814 814 814 813 813 813 813 813 812 812 812 812 811 811 811 811 811 810 810 810 809 808 808 808 807 806 806 804 803 802 802 802 802 801 801 801 801 801 801 801 800 800 800 800 800 800 799 799 799 799 799 799 799 799 799 798 798 798 798 797 797 797 796 796 796 795 795 795 794 794 794 794 794 793 793 793 793 792 792
814 814 814 814 814 814 814 814 814 813 813 813 813 813 813 812 812 811 811 811 811 811 810 810 810 809 809 808 808 807 807 807 806 806 804 803 801 801 801 801 801 801 800 800 800 800 799 799 799 799 799 798 798 798 797 797 797 797 797 797 797 797 797 797 797 796 796 796 795 795 794 794 794 793 793 793 792 792 792 792 791 791 791 791 791 791
814 814 814 814 814 814 814 814 814 813 813 813 813 813 812 812 812 811 811 811 810 810 810 809 809 808 808 807 807 807 807 806 806 805 804 803 801 801 801 801 801 800 799 799 799 798 798 798 798 797 797 797 796 796 796 796 796 796 796 796 796 796 796 796 795 795 795 794 794 793 793 792 792 791 791 791 791 791 790 790 790 790 789 789 789 789
814 814 814 814 814 814 814 814 813 813 813 812 812 812 812 811 811 811 811 810 810 810 809 809 808 807 807 807 806 806 806 806 806 805 804 803 801 801 801 801 800 799 798 798 798 797 796 796 796 796 796 795 795 794 794 794 795 795 795 795 795 795 795 794 794 793 793 792 792 791 791 791 790 790 790 790 789 789 789 788 788 788 788 787 787 787
814 814 814 814 814 814 813 813 813 812 812 812 811 811 811 811 811 810 810 810 810 809 809 808 808 807 806 806 806 806 806 805 805 805 804 803 801 801 801 800 800 799 797 797 796 796 795 795 794 794 794 793 793 793 793 793 793 794 794 794 794 793 793 793 792 791 791 791 790 790 789 789 789 789 788 788 788 787 787 787 787 786 786 786 786 785
814 814 814 813 813 813 813 813 812 812 812 811 811 811 810 810 810 810 809 809 809 809 809 808 807 806 806 806 806 805 805 805 804 804 804 803 801 800 800 800 799 798 797 796 795 795 794 793 792 792 792 792 792 792 792 792 792 792 792 792 792 792 791 791 790 790 789 789 788 788 788 788 787 787 787 787 786 786 786 786 785 785 785 784 784 783
813 813 813 813 812 812 812 811 811 811 811 811 811 810 810 809 809 809 808 808 808 808 808 808 807 806 806 806 805 805 805 804 804 803 803 802 801 800 800 799 799 798 796 794 793 793 793 792 791 791 791 791 791 791 791 791 791 791 791 791 791 790 790 789 789 788 788 787 787 787 786 786 786 786 786 785 785 785 784 784 784 784 783 783 782 781
812 812 812 812 811 811 810 810 810 810 810 810 810 810 809 809 808 808 808 808 808 808 808 807 807 806 806 805 805 804 804 804 803 803 802 802 801 800 800 799 798 797 796 794 792 791 791 791 791 790 790 790 790 790 790 791 790 790 790 790 789 789 788 788 787 787 786 786 786 785 785 785 785 785 784 784 784 783 783 783 782 782 781 781 780 779
812 811 811 811 810 810 809 809 808 808 808 808 808 809 808 808 807 807 807 807 807 807 807 807 806 806 806 805 804 803 803 803 802 802 802 801 801 800 799 799 798 797 796 794 791 790 790 790 790 789 790 790 789 790 790 790 790 789 789 789 788 787 787 786 786 786 785 785 784 784 784 784 783 783 783 783 782 782 782 781 781 781 780 779 778 778
811 811 810 810 809 809 808 807 807 807 807 807 807 807 807 807 807 806 806 806 806 806 806 806 806 806 806 805 804 803 802 802 802 802 801 801 800 800 799 799 798 797 797 795 793 791 789 789 789 789 789 789 789 789 789 789 789 788 788 787 786 786 786 785 785 784 784 783 783 783 782 782 782 782 781 781 781 781 780 780 780 779 778 778 777 776
810 810 809 809 808 808 807 807 806 806 806 806 806 806 806 806 806 806 806 806 806 806 805 805 805 805 805 805 805 804 802 802 801 801 801 801 800 799 799 798 798 798 798 797 796 794 791 789 788 788 788 788 788 788 788 788 787 787 786 786 785 785 784 784 783 783 782 782 782 781 781 781 781 780 780 780 779 779 779 779 778 778 777 776 775 775
809 809 808 808 807 807 806 806 806 806 806 806 806 806 806 806 806 805 805 805 805 805 805 805 805 805 805 805 805 804 803 802 802 801 801 801 800 799 799 798 798 798 798 798 798 798 795 791 789 788 788 788 787 787 786 786 786 785 785 784 784 783 783 783 782 782 781 781 780 780 780 779 779 779 778 778 778 777 777 777 777 776 776 775 774 773
808 808 807 807 806 806 806 806 806 806 806 805 805 805 805 805 805 805 805 805 805 804 804 804 804 804 804 804 803 803 802 802 802 802 801 801 800 799 798 798 798 797 797 797 797 797 796 793 791 788 787 786 786 786 785 785 784 784 784 783 782 782 782 782 781 781 780 779 779 778 778 778 777 777 777 776 776 776 776 775 775 775 774 774 773 772
807 807 807 806 806 806 805 805 805 805 805 805 805 805 805 804 804 804 804 804 804 804 804 804 804 803 803 803 802 801 801 801 801 801 801 801 800 799 798 798 797 797 797 796 796 796 795 793 791 789 787 786 785 785 784 784 783 783 783 782 782 781 781 780 780 779 778 778 777 777 776 776 776 776 775 775 775 774 774 773 773 773 773 773 772 771
806 806 806 806 805 805 805 805 805 805 805 805 804 804 804 804 804 804 804 804 803 803 803 803 803 803 803 802 801 801 800 800 800 801 801 800 799 799 798 797 797 797 797 796 796 795 794 792 791 790 788 785 784 783 783 783 782 782 782 781 781 780 780 779 779 778 777 776 776 776 775 775 775 774 774 773 773 772 772 772 772 772 772 771 771 770
806 805 805 805 805 805 804 804 804 804 804 804 804 804 804 804 803 803 803 803 803 803 802 802 802 802 802 801 801 800 799 799 799 800 800 799 799 798 797 797 796 796 796 796 795 794 793 791 790 789 788 786 783 782 781 781 781 781 781 780 780 779 778 778 777 776 776 775 775 774 774 773 773 772 772 771 771 771 771 771 770 770 770 769 769 769
805 805 804 804 804 804 804 804 804 804 804 804 803 803 803 803 803 803 802 802 802 802 801 801 801 801 801 800 800 799 798 798 798 798 798 798 798 798 797 796 796 796 796 795 794 794 793 791 790 788 787 786 784 782 781 780 780 780 779 779 778 777 777 776 776 776 775 774 773 773 772 772 771 771 770 770 770 769 769 769 768 768 767 767 766 766
804 804 804 804 804 803 803 803 803 803 803 803 803 803 802 802 802 802 801 801 801 801 801 800 800 800 800 799 799 798 798 797 797 797 797 797 797 796 796 795 795 795 795 794 794 793 792 791 790 788 786 785 784 782 781 780 779 778 777 777 776 776 776 775 775 774 774 773 772 771 771 771 770 769 769 768 768 767 767 766 766 766 765 764 764 764
803 803 803 803 803 803 803 803 803 803 803 802 802 802 802 801 801 801 801 800 800 800 799 799 799 798 798 798 798 797 797 797 796 796 796 796 796 795 795 794 794 793 793 793 793 792 792 791 790 788 786 784 782 781 780 780 779 777 776 775 774 774 774 774 774 773 772 772 771 770 770 769 769 768 767 767 766 766 765 764 764 763 763 762 761 761
803 803 803 803 803 803 803 803 803 802 802 802 801 801 801 801 800 800 800 799 799 799 798 798 798 797 797 797 797 796 796 796 796 795 795 795 794 794 794 793 793 792 792 792 792 791 791 790 789 788 786 785 783 781 780 779 778 777 776 775 773 772 772 772 772 771 771 770 770 769 768 768 767 766 766 765 765 764 763 763 762 761 761 761 760 759
803 802 802 802 803 803 802 802 802 802 801 801 801 801 800 800 800 799 799 798 798 798 798 797 797 797 796 796 796 796 795 795 794 794 793 793 793 793 792 792 791 791 791 791 791 790 790 789 788 786 786 785 783 781 780 778 777 777 776 775 773 771 771 771 771 770 770 769 768 768 767 766 766 765 764 764 763 762 762 761 761 760 759 759 759 758
802 802 802 802 802 802 802 802 802 801 801 801 800 800 800 799 799 798 798 798 797 797 797 797 796 796 795 795 794 794 794 793 793 792 792 792 792 791 791 791 791 791 790 790 789 788 788 787 787 786 785 784 783 781 779 777 776 776 776 775 773 771 769 768 769 769 768 767 767 766 766 765 764 763 762 762 761 761 760 760 759 758 758 757 757 756
802 802 802 802 802 801 801 801 801 801 800 800 800 799 799 799 798 798 798 797 797 797 796 796 796 795 794 793 793 792 792 792 792 791 791 791 791 791 790 790 790 789 789 788 788 787 786 786 786 785 784 783 782 781 778 776 775 775 775 774 773 772 769 767 766 767 767 766 766 765 764 763 763 762 761 760 759 759 758 758 757 757 756 756 755 754
801 801 801 801 801 801 801 801 801 800 800 799 799 798 798 798 798 798 797 797 796 796 796 796 795 794 794 793 792 791 791 791 791 791 790 790 790 789 789 789 789 788 788 787 786 786 785 785 784 783 783 782 781 780 778 776 775 774 773 773 772 772 770 768 766 766 765 765 764 763 763 762 761 760 759 758 758 757 756 756 755 755 754 754 753 752
801 801 801 801 801 801 800 800 800 799 799 799 798 798 797 797 797 797 797 796 796 796 795 795 794 794 793 792 791 791 790 790 789 789 789 789 789 788 788 788 787 787 787 786 786 785 784 783 782 781 781 781 780 778 777 775 774 772 771 771 771 770 769 767 766 766 765 764 763 762 761 761 760 759 758 756 756 755 755 754 753 752 752 751 751 750
800 800 800 800 800 800 799 799 799 798 798 798 797 797 797 797 796 796 796 796 795 795 795 794 794 793 792 791 791 790 789 788 788 788 787 787 787 787 787 786 786 786 785 785 784 784 783 782 781 781 780 779 778 776 775 774 773 771 770 770 769 768 767 766 765 765 764 763 761 761 760 760 759 758 756 755 754 753 752 752 751 751 750 749 749 748
800 800 799 799 799 799 799 798 798 798 797 797 796 796 796 796 796 796 795 795 795 794 794 793 793 792 791 791 790 789 788 787 787 786 786 786 786 786 786 786 785 785 784 783 783 782 781 781 780 780 779 778 776 774 773 772 772 771 769 768 768 767 766 765 764 763 763 762 761 760 759 758 758 756 755 753 752 751 750 750 750 749 749 748 747 746
799 799 799 798 798 798 798 797 797 797 796 796 796 795 795 795 795 795 794 794 794 793 793 792 792 791 790 790 789 788 788 787 786 785 785 785 785 785 784 784 784 783 783 782 781 780 779 779 778 778 777 776 775 772 771 770 770 769 768 767 766 766 764 763 762 762 761 760 759 759 758 757 756 755 754 752 751 749 748 748 748 747 747 746 746 745
798 798 798 798 797 797 797 796 796 796 796 795 795 794 794 794 794 794 794 793 793 792 792 791 791 790 789 788 788 787 787 786 785 784 784 784 783 783 783 782 782 781 781 780 779 778 777 776 776 775 775 774 773 771 769 768 767 767 766 766 765 764 763 761 761 760 760 759 758 757 757 756 755 754 753 751 749 747 746 746 746 745 745 744 744 743
797 797 797 797 796 796 796 796 795 795 795 794 794 793 793 793 793 793 792 792 792 791 791 790 790 789 788 787 786 786 786 785 784 783 783 782 782 782 781 781 781 780 779 778 777 776 776 774 773 772 771 771 770 769 768 766 765 765 765 764 763 762 761 760 759 758 758 757 756 756 755 755 754 753 752 751 748 746 745 744 743 743 743 742 741 740
796 796 796 796 796 795 795 795 794 794 794 793 793 793 792 792 792 792 791 791 791 791 790 789 789 788 787 786 786 785 785 784 783 782 781 781 781 781 780 780 780 779 778 777 776 775 774 773 771 769 768 768 768 767 766 765 764 763 762 761 761 761 760 759 757 757 756 756 755 754 754 753 752 751 751 750 748 745 743 742 741 741 740 740 739 738